DECAYED

THORAD AGENA D DEB, 42507 (Decayed)

Orbit data source: Space-Track

THORAD AGENA D DEB, 42507 was space debris in SSO originally from a launch on Wed, 08 Apr 1970 UTC launched from the Air Force Western Test Range (AFWTR). Debris objects in space refer to the collection of defunct objects orbiting the Earth. Examples of debris include non-operational satellites, rocket bodies, and fragments generated from explosions, collisions, or faulty payload assembly.

Not visible in the next 10 days
Identifier
42507, 1970-025RM
Orbit
Decayed
Country
Flag of USUS
Related business
Manufacturer
Unknown
Mission
Decayed spacecraft
Bus & Motor
Unknown
Mass
Unknown
Launch date (UTC)
1970-04-08 (56 years ago)
Launch vehicle
Unknown
Launch site
Air Force Western Test Range (AFWTR)
Object type
Payload
Rocket body
Debris
Shape & HBR
Unknown shape, 0.1 m
Radar Cross Section
Small (<0.1 m²)

Expand to show TLE details & history
Last TLE update: 1 year ago

TLE from 1 year ago
0 THORAD AGENA D DEB
1 42507U 70025RM  25106.81345943  .00104265  00000-0  99467-2 0  9998
2 42507  99.1801 306.3879 0020656 230.2037 129.7360 14.92623588581448
Epoch: 2025-04-16T19:31Z
TLE epoch observation values (Epoch: 2025-04-16T19:31:22.894Z)
Latitude
0.00001°
Longitude
168.34818°
Altitude
601.976 km
Speed
7.554 km/s
True Right ascension
20h 25m 33s
True Declination
0° 00' 00"
Sunlit
Object was in daylight at epoch
Visualization orbit readout
Latitude
Unknown
Longitude
Unknown
Altitude
Unknown
Speed
Unknown
Apparent Right ascension
Unknown
Apparent Declination
Unknown
Sunlit
N/A
Visualization observer readout
Local Sidereal Time
09:34:17
Azimuth
Unknown
Elevation
Unknown
Doppler factor
Unknown
Orbital elements
Apogee altitude
601.232 km
Perigee altitude
572.458 km
Semi-major axis
6,964.982 km
Eccentricity
0.00207
Inclination
99.1801°
RAAN
306.3879°
Arg. of periapsis
230.2037°
True anomaly
129.91772°
Mean anomaly
129.736°
Eccentric anomaly
129.82689°
Mean motion
3.7339 °/min
Orbital period
96.41 mins
BSTAR
0.0099467
Loading maneuver chart data...
Computing Atmospheric mass density...

Documentation

Showing up to 5 results
|